Location: Fort Wayne
(41.1310°N, 85.1290°W)
Time: 09:52:45
(UTC-04:00)

Iridium 37 - Visible Passes

Search period start: 27 June 2017 00:00
Search period end: 07 July 2017 00:00
Orbit: 776 x 779 km, 86.4° (Epoch: 26 June)

Date Brightness Start Highest point End Pass type
(mag) Time Alt. Az. Time Alt. Az. Time Alt. Az.
27 Jun 7.7 03:14:14 10° SE 03:17:52 19° E 03:21:30 10° NE visible
27 Jun 5.9 04:54:00 15° SSW 04:58:09 48° W 05:03:13 10° N visible
28 Jun 8.3 02:44:11 10° E 02:44:44 10° ENE 02:45:17 10° ENE visible
28 Jun 5.5 04:20:51 20° S 04:24:35 88° W 04:29:50 10° N visible
29 Jun 6.2 03:47:40 19° SSE 03:51:08 50° E 03:56:10 10° NNE visible
29 Jun 7.1 05:28:33 10° WSW 05:32:09 19° WNW 05:35:46 10° NNW visible
30 Jun 7.2 03:14:29 15° SE 03:17:48 28° E 03:22:09 10° NNE visible
30 Jun 6.4 04:54:58 17° SW 04:58:22 33° W 05:03:04 10° NNW visible
01 Jul 7.9 02:41:40 10° ESE 02:44:35 15° ENE 02:47:31 10° NE visible
01 Jul 5.6 04:21:46 25° SSW 04:24:43 61° W 04:29:53 10° N visible
02 Jul 5.6 03:48:32 30° SSE 03:51:11 73° E 03:56:24 10° N visible
02 Jul 7.5 05:30:10 10° W 05:32:29 13° WNW 05:34:49 10° NW visible
03 Jul 6.6 03:15:19 24° SE 03:17:46 39° E 03:22:36 10° NNE visible
03 Jul 6.9 04:55:47 15° WSW 04:58:37 23° WNW 05:02:46 10° NNW visible
04 Jul 7.4 02:42:04 16° ESE 02:44:29 22° E 02:48:24 10° NNE visible
04 Jul 6.1 04:22:33 27° SW 04:24:52 42° W 04:29:50 10° NNW visible
05 Jul 8.0 02:09:30 10° E 02:11:19 12° ENE 02:13:09 10° NE visible
05 Jul 5.4 03:49:18 39° SSW 03:51:16 78° W 03:56:31 10° N visible
06 Jul 5.9 03:16:02 38° SE 03:17:48 57° E 03:22:54 10° N visible
06 Jul 7.3 04:56:31 13° WSW 04:58:54 16° WNW 05:02:10 10° NW visible
